• In India
  • List of Countries
  • For 7 days
  • Water Temperature
  • Satellite Maps
  • Weather Map
  • Weather Widgets
  • user-avatar
    Login

    Hourly Weather Hobart

    Today, 23 January, Tuesday

    Time Temperature Precipitation Wind Pressure Humidity
    00:00 +13°C° 0 mm 2 mps 742 mmHg 93%
    01:00 +12°C° 0 mm 2 mps 742 mmHg 94%
    02:00 +12°C° 0 mm 2 mps 742 mmHg 95%
    03:00 +12°C° 0 mm 2 mps 742 mmHg 95%
    04:00 +12°C° 0 mm 2 mps 742 mmHg 94%
    05:00 +13°C° 0 mm 2 mps 742 mmHg 88%
    06:00 +14°C° 0 mm 2 mps 742 mmHg 81%
    07:00 +15°C° 0 mm 2 mps 742 mmHg 75%
    08:00 +17°C° 0 mm 3 mps 742 mmHg 67%
    09:00 +18°C° 0 mm 3 mps 743 mmHg 60%
    10:00 +20°C° 0 mm 3 mps 743 mmHg 52%
    11:00 +21°C° 0 mm 3 mps 743 mmHg 48%
    12:00 +22°C° 0 mm 3 mps 743 mmHg 43%
    13:00 +24°C° 0 mm 3 mps 743 mmHg 39%
    14:00 +25°C° 0 mm 3 mps 743 mmHg 38%
    15:00 +25°C° 0 mm 3 mps 743 mmHg 37%
    16:00 +25°C° 0 mm 3 mps 743 mmHg 35%
    17:00 +24°C° 0 mm 3 mps 743 mmHg 42%
    18:00 +21°C° 0 mm 3 mps 743 mmHg 49%
    19:00 +19°C° 0 mm 3 mps 744 mmHg 57%
    20:00 +17°C° 0 mm 3 mps 744 mmHg 67%
    21:00 +14°C° 0 mm 3 mps 744 mmHg 78%
    22:00 +13°C° 0 mm 2 mps 744 mmHg 89%
    23:00 +13°C° 0 mm 2 mps 744 mmHg 91%

    Tomorrow, 24 January, Wednesday

    Time Temperature Precipitation Wind Pressure Humidity
    00:00 +12°C° 0 mm 2 mps 743 mmHg 93%
    01:00 +12°C° 0 mm 2 mps 743 mmHg 95%
    02:00 +10°C° 0 mm 2 mps 743 mmHg 95%
    03:00 +10°C° 0 mm 2 mps 743 mmHg 95%
    04:00 +10°C° 0 mm 2 mps 743 mmHg 95%
    05:00 +12°C° 0 mm 2 mps 743 mmHg 86%
    06:00 +14°C° 0 mm 2 mps 743 mmHg 76%
    07:00 +15°C° 0 mm 2 mps 743 mmHg 67%
    08:00 +18°C° 0 mm 2 mps 743 mmHg 57%
    09:00 +21°C° 0 mm 2 mps 743 mmHg 47%
    10:00 +25°C° 0 mm 2 mps 743 mmHg 37%
    11:00 +26°C° 0 mm 2 mps 743 mmHg 35%
    12:00 +27°C° 0 mm 3 mps 743 mmHg 33%
    13:00 +28°C° 0 mm 4 mps 743 mmHg 30%
    14:00 +28°C° 0 mm 4 mps 743 mmHg 32%
    15:00 +28°C° 0 mm 4 mps 743 mmHg 33%
    16:00 +28°C° 0 mm 4 mps 743 mmHg 35%
    17:00 +25°C° 0 mm 4 mps 743 mmHg 44%
    18:00 +22°C° 0 mm 3 mps 744 mmHg 53%
    19:00 +20°C° 0 mm 3 mps 744 mmHg 62%
    20:00 +18°C° 0 mm 3 mps 745 mmHg 72%
    21:00 +16°C° 0 mm 2 mps 745 mmHg 81%
    22:00 +14°C° 0 mm 2 mps 746 mmHg 91%
    23:00 +15°C° 0 mm 2 mps 746 mmHg 91%

    Day after tomorrow, 25 January, Thursday

    Time Temperature Precipitation Wind Pressure Humidity
    00:00 +15°C° 0 mm 2 mps 746 mmHg 92%
    01:00 +15°C° 0 mm 2 mps 746 mmHg 92%
    02:00 +15°C° 0 mm 2 mps 746 mmHg 93%
    03:00 +15°C° 0 mm 2 mps 745 mmHg 94%
    04:00 +15°C° 0 mm 2 mps 745 mmHg 96%
    05:00 +15°C° 0 mm 2 mps 745 mmHg 93%
    06:00 +16°C° 0 mm 2 mps 746 mmHg 91%
    07:00 +17°C° 0 mm 2 mps 746 mmHg 88%
    08:00 +18°C° 0 mm 2 mps 746 mmHg 80%
    09:00 +20°C° 0 mm 3 mps 745 mmHg 72%
    10:00 +22°C° 0 mm 3 mps 745 mmHg 64%
    11:00 +26°C° 0 mm 3 mps 745 mmHg 53%
    12:00 +28°C° 0 mm 3 mps 745 mmHg 43%
    13:00 +32°C° 0 mm 4 mps 744 mmHg 32%
    14:00 +32°C° 0 mm 4 mps 744 mmHg 32%
    15:00 +32°C° 0 mm 4 mps 744 mmHg 31%
    16:00 +32°C° 0 mm 5 mps 743 mmHg 31%
    17:00 +29°C° 0 mm 4 mps 743 mmHg 40%
    18:00 +27°C° 0 mm 3 mps 743 mmHg 49%
    19:00 +25°C° 0 mm 3 mps 743 mmHg 58%
    20:00 +21°C° 0 mm 2 mps 744 mmHg 69%
    21:00 +20°C° 0 mm 1 mps 744 mmHg 81%
    22:00 +16°C° 0 mm 1 mps 744 mmHg 92%
    23:00 +16°C° 0 mm 1 mps 744 mmHg 92%

    26 January, Friday

    Time Temperature Precipitation Wind Pressure Humidity
    00:00 +16°C° 0 mm 1 mps 744 mmHg 92%
    01:00 +15°C° 0 mm 1 mps 744 mmHg 92%
    02:00 +15°C° 0 mm 1 mps 744 mmHg 91%
    03:00 +15°C° 0 mm 2 mps 744 mmHg 90%
    04:00 +14°C° 0 mm 2 mps 744 mmHg 88%
    05:00 +16°C° 0 mm 1 mps 744 mmHg 81%
    06:00 +18°C° 0 mm 1 mps 745 mmHg 73%
    07:00 +19°C° 0 mm 1 mps 745 mmHg 66%
    08:00 +22°C° 0 mm 1 mps 746 mmHg 56%
    09:00 +25°C° 0 mm 2 mps 746 mmHg 47%
    10:00 +28°C° 0 mm 2 mps 746 mmHg 37%
    11:00 +29°C° 0 mm 2 mps 746 mmHg 35%
    12:00 +30°C° 0 mm 2 mps 746 mmHg 33%
    13:00 +31°C° 0 mm 3 mps 746 mmHg 31%
    14:00 +30°C° 0 mm 3 mps 746 mmHg 33%
    15:00 +29°C° 0 mm 3 mps 746 mmHg 36%
    16:00 +28°C° 0 mm 3 mps 746 mmHg 39%
    17:00 +26°C° 0 mm 3 mps 746 mmHg 47%
    18:00 +24°C° 0 mm 2 mps 746 mmHg 55%
    19:00 +20°C° 0 mm 2 mps 746 mmHg 63%
    20:00 +18°C° 0 mm 2 mps 746 mmHg 71%
    21:00 +16°C° 0 mm 2 mps 747 mmHg 80%
    22:00 +14°C° 0 mm 1 mps 747 mmHg 89%
    23:00 +14°C° 0 mm 1 mps 747 mmHg 90%

    27 January, Saturday

    Time Temperature Precipitation Wind Pressure Humidity
    00:00 +14°C° 0 mm 1 mps 747 mmHg 91%
    01:00 +13°C° 0 mm 1 mps 746 mmHg 92%
    02:00 +13°C° 0 mm 1 mps 746 mmHg 92%
    03:00 +14°C° 0 mm 1 mps 746 mmHg 92%
    04:00 +14°C° 0 mm 1 mps 746 mmHg 92%
    05:00 +16°C° 0 mm 1 mps 746 mmHg 83%
    06:00 +19°C° 0 mm 1 mps 746 mmHg 75%
    07:00 +21°C° 0 mm 1 mps 746 mmHg 66%
    08:00 +25°C° 0 mm 1 mps 747 mmHg 56%
    09:00 +28°C° 0 mm 1 mps 747 mmHg 46%
    10:00 +32°C° 0 mm 1 mps 747 mmHg 37%
    11:00 +34°C° 0 mm 2 mps 746 mmHg 34%
    12:00 +36°C° 0 mm 2 mps 746 mmHg 32%
    13:00 +37°C° 0 mm 2 mps 746 mmHg 29%
    14:00 +36°C° 0 mm 3 mps 745 mmHg 35%
    15:00 +34°C° 0 mm 3 mps 745 mmHg 41%
    16:00 +31°C° 0 mm 3 mps 745 mmHg 47%
    17:00 +30°C° 0 mm 3 mps 745 mmHg 54%
    18:00 +29°C° 0 mm 3 mps 745 mmHg 61%
    19:00 +28°C° 0 mm 3 mps 745 mmHg 68%
    20:00 +26°C° 0 mm 2 mps 745 mmHg 77%
    21:00 +24°C° 0 mm 2 mps 745 mmHg 85%
    22:00 +21°C° 0 mm 2 mps 745 mmHg 94%
    23:00 +21°C° 0 mm 2 mps 745 mmHg 95%

    28 January, Sunday

    Time Temperature Precipitation Wind Pressure Humidity
    00:00 +21°C° 0 mm 3 mps 744 mmHg 95%
    01:00 +21°C° 0 mm 3 mps 744 mmHg 96%
    02:00 +21°C° 0 mm 3 mps 743 mmHg 96%
    03:00 +20°C° 0 mm 3 mps 743 mmHg 97%
    04:00 +20°C° 0 mm 3 mps 742 mmHg 97%
    05:00 +21°C° 0 mm 3 mps 742 mmHg 91%
    06:00 +22°C° 0 mm 4 mps 742 mmHg 86%
    07:00 +25°C° 0 mm 4 mps 742 mmHg 80%
    08:00 +28°C° 0 mm 4 mps 742 mmHg 66%
    09:00 +32°C° 0 mm 4 mps 742 mmHg 53%
    10:00 +35°C° 0 mm 4 mps 742 mmHg 39%
    11:00 +37°C° 0 mm 4 mps 742 mmHg 33%
    12:00 +40°C° 0 mm 4 mps 741 mmHg 28%
    13:00 +41°C° 0 mm 4 mps 741 mmHg 22%
    14:00 +41°C° 0 mm 4 mps 740 mmHg 24%
    15:00 +40°C° 0 mm 4 mps 740 mmHg 27%
    16:00 +40°C° 0 mm 4 mps 739 mmHg 29%
    17:00 +36°C° 0 mm 3 mps 739 mmHg 39%
    18:00 +33°C° 0 mm 3 mps 739 mmHg 49%
    19:00 +29°C° 0 mm 2 mps 739 mmHg 58%
    20:00 +28°C° 0.2 mm 2 mps 740 mmHg 67%
    21:00 +26°C° 0.2 mm 2 mps 740 mmHg 76%
    22:00 +24°C° 0.2 mm 2 mps 740 mmHg 84%
    23:00 +24°C° 0 mm 1 mps 740 mmHg 87%
    Show more